FW6905 Weather Reports


Display with metric or nautical units.
time (UTC)temp
F
wind
direction
speed
MPH
gust
MPH
rain 1hr
in
rain 24hr
in
rain mn
in
humidity
%
barometer
mb
20260504173005 69 234 2.0 2.0 0.00 0.00 0.00 39 1017.7
20260504172506 69 249 1.0 2.0 0.00 0.00 0.00 37 1017.7
20260504172005 69 252 2.0 2.0 0.00 0.00 0.00 36 1017.7
20260504171506 70 243 1.0 2.0 0.00 0.00 0.00 35 1017.7
20260504171006 70 237 2.0 2.0 0.00 0.00 0.00 34 1017.7
20260504170505 70 242 1.0 2.0 0.00 0.00 0.00 33 1017.7
20260504151005 74 190 2.0 6.0 0.00 0.00 0.00 27 1017.7
20260504150505 75 225 3.0 9.0 0.00 0.00 0.00 26 1017.7
20260504141006 76 290 7.0 11.0 0.00 0.00 0.00 25 1017.7
20260504140505 76 287 5.0 12.0 0.00 0.00 0.00 25 1017.7
20260504110505 78 281 2.0 9.0 0.00 0.00 0.00 24 1018.8
20260504100505 77 284 6.0 10.0 0.00 0.00 0.00 26 1019.8
20260504082005 67 101 1.0 3.0 0.00 0.00 0.00 48 1019.8
20260504081505 67 149 1.0 4.0 0.00 0.00 0.00 48 1019.8
20260504081005 67 183 2.0 4.0 0.00 0.00 0.00 49 1019.8
20260504080505 66 149 2.0 3.0 0.00 0.00 0.00 51 1019.8
20260504050505 45 68 2.0 2.0 0.00 0.00 0.00 78 1018.8
20260504050005 45 60 1.0 2.0 0.00 0.00 0.00 78 1018.8
20260504045505 45 181 0.0 2.0 0.00 0.00 0.00 79 1019.8
20260504045005 45 262 0.0 2.0 0.00 0.00 0.00 79 1019.8
20260504044505 45 306 0.0 2.0 0.00 0.00 0.00 78 1019.8
20260504044005 45 111 0.0 2.0 0.00 0.00 0.00 78 1019.8
20260504043505 45 111 1.0 2.0 0.00 0.00 0.00 78 1019.8
20260504042505 45 0 0.0 0.0 0.00 0.00 0.00 76 1019.8
20260504042005 45 0 0.0 0.0 0.00 0.00 0.00 76 1019.8
20260504041505 45 0 0.0 0.0 0.00 0.00 0.00 76 1019.8
20260504041005 45 109 0.0 2.0 0.00 0.00 0.00 76 1019.8
20260504040505 45 109 0.0 2.0 0.00 0.00 0.00 76 1019.8
20260504040005 45 49 0.0 2.0 0.00 0.00 0.00 76 1019.8
20260504035505 45 77 0.0 2.0 0.00 0.00 0.00 75 1019.8
20260504035004 45 101 0.0 2.0 0.00 0.00 0.00 76 1019.8
20260504034505 45 0 0.0 0.0 0.00 0.00 0.00 76 1019.8
20260504034005 46 0 0.0 0.0 0.00 0.00 0.00 75 1019.8
20260504033505 45 0 0.0 0.0 0.00 0.00 0.00 75 1019.8
20260504032505 46 0 0.0 0.0 0.00 0.00 0.00 76 1019.8
20260504032005 46 89 0.0 2.0 0.00 0.00 0.00 76 1019.8
20260504031504 46 80 1.0 2.0 0.00 0.00 0.00 74 1019.8
20260504031005 46 71 1.0 2.0 0.00 0.00 0.00 74 1019.8
20260504030504 46 72 2.0 2.0 0.00 0.00 0.00 75 1019.8
20260504025005 46 90 0.0 2.0 0.00 0.00 0.00 74 1019.8
20260504024505 46 90 0.0 2.0 0.00 0.00 0.00 74 1019.8
20260504023505 46 0 0.0 0.0 0.00 0.00 0.00 74 1019.8
20260504023004 46 90 0.0 2.0 0.00 0.00 0.00 73 1019.8
20260504022505 46 90 0.0 2.0 0.00 0.00 0.00 73 1019.8
20260504022004 47 90 2.0 2.0 0.00 0.00 0.00 73 1019.8
20260504021004 47 135 0.0 2.0 0.00 0.00 0.00 73 1019.8
20260504020505 47 116 0.0 2.0 0.00 0.00 0.00 72 1019.8
20260504020005 47 99 1.0 2.0 0.00 0.00 0.00 72 1019.8
20260504015005 47 66 2.0 2.0 0.00 0.00 0.00 73 1018.8
20260504014505 47 90 0.0 2.0 0.00 0.00 0.00 71 1018.8
20260504013005 47 82 0.0 2.0 0.00 0.00 0.00 71 1018.8
20260504012005 47 68 0.0 2.0 0.00 0.00 0.00 71 1019.8
20260504011505 47 72 0.0 2.0 0.00 0.00 0.00 71 1019.8
20260504011005 48 70 0.0 3.0 0.00 0.00 0.00 71 1019.8
20260504010505 47 80 2.0 3.0 0.00 0.00 0.00 70 1019.8
20260504010005 47 100 2.0 2.0 0.00 0.00 0.00 72 1019.8
20260504005505 48 111 1.0 2.0 0.00 0.00 0.00 71 1019.8
20260504005005 48 112 0.0 2.0 0.00 0.00 0.00 69 1019.8
20260504004005 48 87 2.0 2.0 0.00 0.00 0.00 70 1018.8
20260504003504 48 68 1.0 2.0 0.00 0.00 0.00 69 1018.8
20260504002505 48 53 0.0 2.0 0.00 0.00 0.00 70 1019.8
20260504002005 48 61 0.0 2.0 0.00 0.00 0.00 70 1019.8
20260504001006 48 90 2.0 2.0 0.00 0.00 0.00 70 1019.8
20260504000004 48 90 0.0 2.0 0.00 0.00 0.00 69 1019.8
20260503235505 48 90 0.0 2.0 0.00 0.00 0.00 70 1018.8
20260503235005 49 94 2.0 3.0 0.00 0.00 0.00 70 1018.8
20260503234505 49 90 2.0 3.0 0.00 0.00 0.00 69 1018.8
20260503233505 49 59 1.0 3.0 0.00 0.00 0.00 66 1019.8
20260503232505 49 0 0.0 0.0 0.00 0.00 0.00 67 1018.8
20260503232004 49 0 0.0 0.0 0.00 0.00 0.00 67 1018.8
20260503231505 49 0 0.0 0.0 0.00 0.00 0.00 67 1018.8
20260503230505 49 112 0.0 2.0 0.00 0.00 0.00 66 1019.8
20260503230005 49 100 0.0 3.0 0.00 0.00 0.00 66 1019.8
20260503225505 49 90 1.0 3.0 0.00 0.00 0.00 66 1018.8
20260503225005 49 15 0.0 2.0 0.00 0.00 0.00 65 1018.8
20260503224505 49 0 0.0 0.0 0.00 0.00 0.00 64 1018.8
20260503224004 50 0 0.0 0.0 0.00 0.00 0.00 65 1019.8
20260503223505 50 90 0.0 1.0 0.00 0.00 0.00 65 1019.8
20260503223006 50 90 0.0 2.0 0.00 0.00 0.00 64 1019.8
20260503222504 50 90 0.0 2.0 0.00 0.00 0.00 65 1019.8
20260503222005 50 60 0.0 3.0 0.00 0.00 0.00 64 1019.8
20260503221504 50 60 0.0 3.0 0.00 0.00 0.00 63 1019.8
20260503220504 50 115 2.0 2.0 0.00 0.00 0.00 65 1019.8
20260503214507 51 71 0.0 2.0 0.00 0.00 0.00 61 1020.8
20260503214006 51 91 0.0 2.0 0.00 0.00 0.00 60 1019.8
20260503213507 51 108 1.0 2.0 0.00 0.00 0.00 61 1019.8
20260503213006 51 112 1.0 2.0 0.00 0.00 0.00 61 1019.8
20260503212507 51 111 2.0 2.0 0.00 0.00 0.00 61 1019.8
20260503211506 51 35 0.0 2.0 0.00 0.00 0.00 59 1019.8
20260503211007 52 55 0.0 2.0 0.00 0.00 0.00 59 1018.8
20260503210506 52 88 0.0 2.0 0.00 0.00 0.00 59 1018.8
20260503210007 52 80 1.0 2.0 0.00 0.00 0.00 59 1018.8
20260503205506 52 50 2.0 2.0 0.00 0.00 0.00 58 1019.8
20260503205007 52 82 0.0 2.0 0.00 0.00 0.00 58 1019.8
20260503204506 52 89 0.0 2.0 0.00 0.00 0.00 58 1019.8
20260503204006 53 0 0.0 0.0 0.00 0.00 0.00 58 1019.8
20260503203507 53 0 0.0 0.0 0.00 0.00 0.00 56 1019.8
20260503203006 53 0 0.0 0.0 0.00 0.00 0.00 56 1019.8
20260503202507 53 0 0.0 0.0 0.00 0.00 0.00 56 1019.8
20260503202006 53 68 0.0 1.0 0.00 0.00 0.00 55 1019.8
20260503201507 54 68 0.0 1.0 0.00 0.00 0.00 53 1019.8
20260503201006 54 0 0.0 0.0 0.00 0.00 0.00 54 1019.8
20260503200506 54 0 0.0 0.0 0.00 0.00 0.00 52 1019.8
20260503195006 55 314 0.0 1.0 0.00 0.00 0.00 51 1019.8
20260503194006 56 330 1.0 2.0 0.00 0.00 0.00 50 1019.8
20260503193507 56 359 1.0 2.0 0.00 0.00 0.00 48 1019.8
20260503193006 56 46 0.0 2.0 0.00 0.00 0.00 48 1019.8
20260503192507 56 0 0.0 0.0 0.00 0.00 0.00 47 1019.8
20260503192006 57 0 0.0 0.0 0.00 0.00 0.00 47 1019.8
20260503191506 57 26 0.0 2.0 0.00 0.00 0.00 45 1019.8
20260503190506 58 37 0.0 2.0 0.00 0.00 0.00 43 1019.8
20260503185506 59 71 0.0 2.0 0.00 0.00 0.00 41 1018.8
20260503185007 59 73 0.0 2.0 0.00 0.00 0.00 40 1018.8
20260503184506 60 90 0.0 1.0 0.00 0.00 0.00 39 1018.8
20260503184006 60 0 0.0 0.0 0.00 0.00 0.00 38 1018.8
20260503183506 61 0 0.0 0.0 0.00 0.00 0.00 38 1018.8
20260503183006 61 314 0.0 1.0 0.00 0.00 0.00 37 1018.8
20260503182506 62 335 0.0 2.0 0.00 0.00 0.00 38 1018.8
20260503181506 63 10 0.0 2.0 0.00 0.00 0.00 34 1018.8
20260503181007 64 90 0.0 2.0 0.00 0.00 0.00 33 1018.8
20260503180506 64 90 1.0 2.0 0.00 0.00 0.00 34 1018.8
20260503180007 65 203 0.0 2.0 0.00 0.00 0.00 32 1018.8
20260503174506 66 223 1.0 3.0 0.00 0.00 0.00 30 1018.8
20260503174007 67 244 0.0 4.0 0.00 0.00 0.00 30 1019.8